Location: Saint Mary
(48.7436°N, 113.4291°W)
Time: 21:51:00
(UTC+00:00)

ISS - Visible Passes

Search period start: 30 March 2023 00:00
Search period end: 09 April 2023 00:00
Orbit: 413 x 421 km, 51.6° (Epoch: 30 March)

Date Brightness Start Highest point End Pass type
(mag) Time Alt. Az. Time Alt. Az. Time Alt. Az.
30 Mar -2.8 03:52:13 10° W 03:55:19 35° SW 03:55:42 33° SSW visible
31 Mar -3.2 03:03:54 10° WNW 03:07:11 52° SSW 03:09:32 17° SE visible
01 Apr -1.5 03:53:03 10° W 03:55:14 16° SW 03:56:16 14° SSW visible
02 Apr -1.9 03:04:16 10° W 03:07:03 25° SW 03:09:50 10° SSE visible
04 Apr -0.9 03:05:27 10° WSW 03:06:29 11° SW 03:07:30 10° SSW visible
